Weather History for Cumberland, MD

Change the Weather History Date:

Tuesday, April 30, 2013

  Actual Average (KMRB) Record (KMRB)
Temperature  
Mean Temperature 58 °F 57 °F  
Max Temperature 62 °F 69 °F 91 °F (1974)
Min Temperature 53 °F 45 °F 30 °F (1944)
Degree Days  
Heating Degree Days 8 9  
Month to date heating degree days 385  
Since 1 July heating degree days 5057  
Cooling Degree Days 0 0  
Month to date cooling degree days 8  
Year to date cooling degree days 9  
Growing Degree Days 8 (Base 50)    
Moisture  
Dew Point 52 °F    
Average Humidity 82    
Maximum Humidity 94    
Minimum Humidity 68    
Precipitation  
Precipitation 0.00 in 0.11 in 0.57 in (2014)
Month to date precipitation 3.34  
Year to date precipitation 11.64  
Sea Level Pressure  
Sea Level Pressure 30.22 in    
Wind  
Wind Speed 2 mph (ESE)    
Max Wind Speed 8 mph    
Max Gust Speed -    
Visibility 9 miles    
Events      
T = Trace of Precipitation, MM = Missing Value Source: NWS Daily Summary

Daily Weather History Graph

Daily Weather History Graph

Search for Another Location

Airport:

Trip Planner

Search our weather history database for the weather conditions in past years. The results will help you decide how hot, cold, wet, or windy it might be!

Date:

Astronomy

Apr. 30, 2013 Rise Set
Actual Time 6:16 AM EDT 8:08 PM EDT
Civil Twilight 5:47 AM EDT 8:37 PM EDT
Nautical Twilight 5:12 AM EDT 9:12 PM EDT
Astronomical Twilight 4:34 AM EDT 9:50 PM EDT
Moon 12:29 AM EDT (4/30) 10:43 AM EDT (4/30)
Length of Visible Light 14h 49m
Length of Day
13h 51m
Waning Gibbous, 70% of the Moon is Illuminated
Apr 30
Waning Gibbous
May 2
Last Quarter
May 9
New
May 18
First Quarter
May 25
Full

Hourly Weather History & Observations

Time (EDT) Temp. Dew Point Humidity Pressure Visibility Wind Dir Wind Speed Gust Speed Precip Events Conditions
12:18 AM 55.4 °F 51.8 °F 88% 30.14 in 10.0 mi Calm Calm - N/A   Overcast
12:38 AM 55.4 °F 51.8 °F 88% 30.13 in 10.0 mi Calm Calm - N/A   Overcast
12:58 AM 55.4 °F 51.8 °F 88% 30.14 in 10.0 mi ENE 3.5 mph - N/A   Mostly Cloudy
1:18 AM 55.4 °F 51.8 °F 88% 30.14 in 10.0 mi Calm Calm - N/A   Mostly Cloudy
1:38 AM 55.4 °F 50.0 °F 82% 30.14 in 10.0 mi Calm Calm - N/A   Overcast
1:58 AM 55.4 °F 51.8 °F 88% 30.14 in 10.0 mi Calm Calm - N/A   Overcast
2:18 AM 55.4 °F 51.8 °F 88% 30.13 in 10.0 mi ENE 3.5 mph - N/A   Overcast
2:38 AM 53.6 °F 50.0 °F 88% 30.14 in 10.0 mi Calm Calm - N/A   Overcast
2:58 AM 53.6 °F 50.0 °F 88% 30.14 in 10.0 mi NE 3.5 mph - N/A   Overcast
3:19 AM 53.6 °F 50.0 °F 88% 30.14 in 10.0 mi NE 3.5 mph - N/A   Overcast
3:39 AM 53.6 °F 50.0 °F 88% 30.14 in 10.0 mi NE 4.6 mph - N/A   Overcast
3:59 AM 53.6 °F 50.0 °F 88% 30.14 in 10.0 mi Calm Calm - N/A   Mostly Cloudy
4:19 AM 53.6 °F 50.0 °F 88% 30.14 in 10.0 mi North 3.5 mph - N/A   Mostly Cloudy
4:39 AM 53.6 °F 50.0 °F 88% 30.15 in 10.0 mi NE 3.5 mph - N/A   Overcast
4:59 AM 53.6 °F 50.0 °F 88% 30.15 in 10.0 mi NNE 3.5 mph - N/A   Overcast
5:19 AM 53.6 °F 50.0 °F 88% 30.15 in 10.0 mi NNE 3.5 mph - N/A   Overcast
5:39 AM 53.6 °F 50.0 °F 88% 30.17 in 10.0 mi Calm Calm - N/A   Mostly Cloudy
5:59 AM 53.6 °F 50.0 °F 88% 30.18 in 10.0 mi North 3.5 mph - N/A   Overcast
6:19 AM 53.6 °F 50.0 °F 88% 30.18 in 10.0 mi Calm Calm - N/A   Overcast
6:39 AM 53.6 °F 50.0 °F 88% 30.19 in 10.0 mi Calm Calm - N/A   Overcast
6:59 AM 53.6 °F 50.0 °F 88% 30.20 in 10.0 mi NNE 3.5 mph - N/A   Overcast
7:19 AM 53.6 °F 50.0 °F 88% 30.20 in 10.0 mi NE 3.5 mph - N/A   Overcast
7:39 AM 53.6 °F 51.8 °F 94% 30.20 in 10.0 mi Calm Calm - N/A   Overcast
7:59 AM 53.6 °F 51.8 °F 94% 30.21 in 4.0 mi Calm Calm - N/A   Overcast
8:19 AM 55.4 °F 51.8 °F 88% 30.22 in 5.0 mi Calm Calm - N/A   Overcast
8:39 AM 55.4 °F 51.8 °F 88% 30.22 in 10.0 mi Calm Calm - N/A   Mostly Cloudy
8:59 AM 55.4 °F 51.8 °F 88% 30.23 in 10.0 mi Calm Calm - N/A   Overcast
9:19 AM 55.4 °F 51.8 °F 88% 30.23 in 10.0 mi Calm Calm - N/A   Overcast
9:39 AM 55.4 °F 51.8 °F 88% 30.23 in 10.0 mi Calm Calm - N/A   Overcast
9:59 AM 55.4 °F 51.8 °F 88% 30.23 in 10.0 mi SSW 3.5 mph - N/A   Mostly Cloudy
10:19 AM 55.4 °F 51.8 °F 88% 30.23 in 3.0 mi Calm Calm - N/A   Overcast
10:39 AM 57.2 °F 51.8 °F 82% 30.24 in 10.0 mi Calm Calm - N/A   Mostly Cloudy
10:59 AM 57.2 °F 51.8 °F 82% 30.24 in 10.0 mi Calm Calm - N/A   Mostly Cloudy
11:19 AM 55.4 °F 53.6 °F 94% 30.24 in 5.0 mi Calm Calm - N/A   Overcast
11:39 AM 57.2 °F 53.6 °F 88% 30.24 in 7.0 mi Calm Calm - N/A   Mostly Cloudy
12:00 PM 57.2 °F 53.6 °F 88% 30.24 in 2.5 mi Calm Calm - N/A   Overcast
12:20 PM 59.0 °F 53.6 °F 82% 30.23 in 10.0 mi ESE 3.5 mph - N/A   Mostly Cloudy
12:40 PM 60.8 °F 51.8 °F 72% 30.23 in 10.0 mi SE 5.8 mph - N/A   Mostly Cloudy
1:00 PM 60.8 °F 53.6 °F 77% 30.23 in 10.0 mi ENE 3.5 mph - N/A   Mostly Cloudy
1:20 PM 60.8 °F 51.8 °F 72% 30.23 in 10.0 mi Calm Calm - N/A   Mostly Cloudy
1:40 PM 60.8 °F 51.8 °F 72% 30.23 in 10.0 mi ENE 4.6 mph - N/A   Mostly Cloudy
2:00 PM 62.6 °F 51.8 °F 68% 30.23 in 10.0 mi ENE 8.1 mph - N/A   Unknown
2:20 PM 62.6 °F 51.8 °F 68% 30.22 in 10.0 mi ENE 8.1 mph - N/A   Overcast
2:40 PM 62.6 °F 51.8 °F 68% 30.23 in 10.0 mi East 8.1 mph - N/A   Mostly Cloudy
3:00 PM 62.6 °F 51.8 °F 68% 30.24 in 10.0 mi East 4.6 mph - N/A   Overcast
3:20 PM 62.6 °F 51.8 °F 68% 30.24 in 10.0 mi SE 3.5 mph - N/A   Overcast
3:40 PM 62.6 °F 51.8 °F 68% 30.24 in 10.0 mi East 8.1 mph - N/A   Overcast
4:00 PM 62.6 °F 51.8 °F 68% 30.24 in 10.0 mi ESE 4.6 mph - N/A   Overcast
4:20 PM 62.6 °F 51.8 °F 68% 30.24 in 10.0 mi ESE 4.6 mph - N/A   Overcast
4:40 PM 62.6 °F 51.8 °F 68% 30.24 in 10.0 mi SE 5.8 mph - N/A   Overcast
5:00 PM 60.8 °F 51.8 °F 72% 30.25 in 10.0 mi ESE 5.8 mph - N/A   Overcast
5:20 PM 62.6 °F 51.8 °F 68% 30.24 in 10.0 mi ESE 6.9 mph - N/A   Overcast
5:40 PM 62.6 °F 51.8 °F 68% 30.25 in 10.0 mi ESE 6.9 mph - N/A   Overcast
6:00 PM 60.8 °F 51.8 °F 72% 30.25 in 10.0 mi ESE 5.8 mph - N/A   Overcast
6:20 PM 60.8 °F 51.8 °F 72% 30.26 in 10.0 mi SE 6.9 mph - N/A   Mostly Cloudy
6:40 PM 60.8 °F 51.8 °F 72% 30.26 in 10.0 mi East 6.9 mph - N/A   Overcast
7:00 PM 60.8 °F 51.8 °F 72% 30.26 in 10.0 mi ESE 4.6 mph - N/A   Overcast
7:20 PM 60.8 °F 51.8 °F 72% 30.26 in 10.0 mi ESE 4.6 mph - N/A   Overcast
7:40 PM 59.0 °F 51.8 °F 77% 30.27 in 7.0 mi SE 8.1 mph - N/A   Mostly Cloudy
8:00 PM 59.0 °F 51.8 °F 77% 30.27 in 10.0 mi SSE 5.8 mph - N/A   Mostly Cloudy
8:20 PM 59.0 °F 53.6 °F 82% 30.28 in 10.0 mi SSE 5.8 mph - N/A   Overcast
8:41 PM 57.2 °F 53.6 °F 88% 30.29 in 7.0 mi SSE 5.8 mph - N/A   Overcast
9:01 PM 55.4 °F 53.6 °F 94% 30.30 in 10.0 mi SSE 5.8 mph - N/A   Overcast
9:21 PM 55.4 °F 53.6 °F 94% 30.31 in 7.0 mi SE 3.5 mph - N/A   Overcast
9:41 PM 55.4 °F 53.6 °F 94% 30.31 in 10.0 mi SSE 4.6 mph - N/A   Overcast
10:01 PM 55.4 °F 51.8 °F 88% 30.32 in 10.0 mi SSE 5.8 mph - N/A   Overcast
10:21 PM 55.4 °F 51.8 °F 88% 30.32 in 10.0 mi SSE 4.6 mph - N/A   Overcast
10:41 PM 55.4 °F 51.8 °F 88% 30.32 in 10.0 mi SSE 3.5 mph - N/A   Overcast
11:01 PM 55.4 °F 51.8 °F 88% 30.32 in 10.0 mi SSE 4.6 mph - N/A   Overcast
11:21 PM 55.4 °F 51.8 °F 88% 30.32 in 10.0 mi Calm Calm - N/A   Overcast
11:41 PM 55.4 °F 51.8 °F 88% 30.32 in 10.0 mi Calm Calm - N/A   Overcast